Previsão horária em Kabanovka

Hoje, 18 Junho, Sexta-feira

Tempo Temperatura Precipitação Vento Pressão Humidade
00:00 +14°C° 0 mm 2 m/s 756 mmHg 79%
01:00 +14°C° 0 mm 2 m/s 756 mmHg 78%
02:00 +14°C° 0 mm 2 m/s 757 mmHg 77%
03:00 +14°C° 0 mm 2 m/s 757 mmHg 79%
04:00 +13°C° 0 mm 3 m/s 758 mmHg 77%
05:00 +14°C° 0 mm 4 m/s 758 mmHg 74%
06:00 +15°C° 0 mm 5 m/s 758 mmHg 72%
07:00 +16°C° 0 mm 5 m/s 758 mmHg 68%
08:00 +17°C° 0 mm 5 m/s 759 mmHg 64%
09:00 +19°C° 0 mm 6 m/s 759 mmHg 60%
10:00 +19°C° 0 mm 6 m/s 759 mmHg 57%
11:00 +20°C° 0 mm 6 m/s 759 mmHg 54%
12:00 +20°C° 0 mm 6 m/s 759 mmHg 52%
13:00 +21°C° 0 mm 6 m/s 760 mmHg 51%
14:00 +21°C° 0 mm 6 m/s 760 mmHg 50%
15:00 +21°C° 0 mm 6 m/s 760 mmHg 49%
16:00 +20°C° 0 mm 5 m/s 760 mmHg 54%
17:00 +20°C° 0 mm 4 m/s 760 mmHg 58%
18:00 +19°C° 0 mm 3 m/s 761 mmHg 63%
19:00 +17°C° 0 mm 3 m/s 761 mmHg 68%
20:00 +16°C° 0 mm 2 m/s 761 mmHg 72%
21:00 +14°C° 0 mm 2 m/s 761 mmHg 77%
22:00 +14°C° 0 mm 2 m/s 762 mmHg 77%
23:00 +13°C° 0 mm 2 m/s 762 mmHg 78%

Amanhã, 19 Junho, Sábado

Tempo Temperatura Precipitação Vento Pressão Humidade
00:00 +13°C° 0 mm 2 m/s 762 mmHg 79%
01:00 +12°C° 0 mm 1 m/s 762 mmHg 80%
02:00 +12°C° 0 mm 1 m/s 762 mmHg 81%
03:00 +12°C° 0 mm 1 m/s 762 mmHg 81%
04:00 +13°C° 0 mm 1 m/s 763 mmHg 77%
05:00 +15°C° 0 mm 1 m/s 763 mmHg 73%
06:00 +16°C° 0 mm 1 m/s 763 mmHg 69%
07:00 +17°C° 0 mm 2 m/s 763 mmHg 64%
08:00 +19°C° 0 mm 2 m/s 763 mmHg 60%
09:00 +20°C° 0 mm 3 m/s 762 mmHg 55%
10:00 +21°C° 0 mm 3 m/s 762 mmHg 53%
11:00 +22°C° 0 mm 3 m/s 762 mmHg 52%
12:00 +23°C° 0 mm 4 m/s 761 mmHg 50%
13:00 +23°C° 0 mm 4 m/s 761 mmHg 51%
14:00 +25°C° 0 mm 4 m/s 761 mmHg 51%
15:00 +25°C° 0 mm 5 m/s 760 mmHg 51%
16:00 +23°C° 0 mm 4 m/s 760 mmHg 57%
17:00 +23°C° 0 mm 4 m/s 760 mmHg 62%
18:00 +22°C° 0 mm 3 m/s 759 mmHg 67%
19:00 +21°C° 0 mm 3 m/s 759 mmHg 72%
20:00 +19°C° 0 mm 3 m/s 759 mmHg 76%
21:00 +18°C° 0 mm 3 m/s 759 mmHg 80%
22:00 +17°C° 0 mm 3 m/s 759 mmHg 82%
23:00 +17°C° 0 mm 3 m/s 759 mmHg 84%

Depois de amanhã, 20 Junho, Domingo

Tempo Temperatura Precipitação Vento Pressão Humidade
00:00 +17°C° 0 mm 3 m/s 759 mmHg 86%
01:00 +16°C° 0 mm 3 m/s 759 mmHg 88%
02:00 +16°C° 0 mm 3 m/s 759 mmHg 90%
03:00 +16°C° 0 mm 3 m/s 759 mmHg 93%
04:00 +17°C° 0 mm 3 m/s 759 mmHg 89%
05:00 +19°C° 0 mm 4 m/s 759 mmHg 85%
06:00 +20°C° 0 mm 4 m/s 759 mmHg 81%
07:00 +22°C° 0 mm 4 m/s 759 mmHg 77%
08:00 +25°C° 0 mm 4 m/s 759 mmHg 72%
09:00 +26°C° 0 mm 5 m/s 758 mmHg 67%
10:00 +27°C° 0 mm 5 m/s 758 mmHg 64%
11:00 +28°C° 0 mm 5 m/s 758 mmHg 60%
12:00 +29°C° 0 mm 5 m/s 758 mmHg 56%
13:00 +30°C° 0 mm 5 m/s 758 mmHg 55%
14:00 +30°C° 0 mm 5 m/s 758 mmHg 54%
15:00 +30°C° 0 mm 5 m/s 758 mmHg 53%
16:00 +29°C° 0 mm 4 m/s 758 mmHg 59%
17:00 +28°C° 0 mm 3 m/s 758 mmHg 65%
18:00 +28°C° 0 mm 3 m/s 758 mmHg 71%
19:00 +26°C° 0 mm 2 m/s 758 mmHg 75%
20:00 +24°C° 0 mm 2 m/s 758 mmHg 80%
21:00 +23°C° 0 mm 2 m/s 758 mmHg 85%
22:00 +22°C° 0 mm 1 m/s 759 mmHg 86%
23:00 +22°C° 0 mm 1 m/s 759 mmHg 87%

21 Junho, Segunda-feira

Tempo Temperatura Precipitação Vento Pressão Humidade
00:00 +21°C° 0 mm 1 m/s 759 mmHg 89%
01:00 +21°C° 0 mm 1 m/s 759 mmHg 87%
02:00 +20°C° 0 mm 1 m/s 759 mmHg 85%
03:00 +20°C° 0 mm 1 m/s 759 mmHg 83%
04:00 +21°C° 0 mm 1 m/s 760 mmHg 78%
05:00 +22°C° 0 mm 1 m/s 760 mmHg 74%
06:00 +23°C° 0 mm 1 m/s 760 mmHg 69%
07:00 +24°C° 0 mm 1 m/s 760 mmHg 66%
08:00 +25°C° 0 mm 2 m/s 760 mmHg 63%
09:00 +26°C° 0 mm 2 m/s 760 mmHg 60%
10:00 +27°C° 0 mm 2 m/s 760 mmHg 58%
11:00 +28°C° 0 mm 1 m/s 760 mmHg 57%
12:00 +29°C° 0 mm 1 m/s 760 mmHg 55%
13:00 +30°C° 0 mm 1 m/s 759 mmHg 54%
14:00 +30°C° 0 mm 1 m/s 759 mmHg 53%
15:00 +30°C° 0 mm 1 m/s 759 mmHg 52%
16:00 +30°C° 0.1 mm 1 m/s 759 mmHg 58%
17:00 +29°C° 0.1 mm 1 m/s 758 mmHg 63%
18:00 +28°C° 0.1 mm 1 m/s 758 mmHg 69%
19:00 +27°C° 0 mm 1 m/s 758 mmHg 72%
20:00 +25°C° 0 mm 1 m/s 758 mmHg 75%
21:00 +24°C° 0 mm 1 m/s 758 mmHg 78%
22:00 +23°C° 0 mm 1 m/s 758 mmHg 79%
23:00 +23°C° 0 mm 1 m/s 758 mmHg 80%

22 Junho, Terça-feira

Tempo Temperatura Precipitação Vento Pressão Humidade
00:00 +23°C° 0 mm 1 m/s 758 mmHg 82%
01:00 +22°C° 0 mm 1 m/s 758 mmHg 83%
02:00 +22°C° 0 mm 1 m/s 758 mmHg 84%
03:00 +21°C° 0 mm 1 m/s 758 mmHg 85%
04:00 +23°C° 0 mm 1 m/s 758 mmHg 83%
05:00 +24°C° 0 mm 1 m/s 758 mmHg 80%
06:00 +25°C° 0 mm 1 m/s 758 mmHg 77%
07:00 +26°C° 0 mm 2 m/s 758 mmHg 72%
08:00 +27°C° 0 mm 2 m/s 758 mmHg 67%
09:00 +29°C° 0 mm 3 m/s 758 mmHg 63%
10:00 +29°C° 0 mm 3 m/s 758 mmHg 58%
11:00 +30°C° 0 mm 4 m/s 758 mmHg 53%
12:00 +32°C° 0 mm 4 m/s 758 mmHg 49%
13:00 +32°C° 0 mm 4 m/s 758 mmHg 48%
14:00 +32°C° 0 mm 4 m/s 758 mmHg 48%
15:00 +32°C° 0 mm 4 m/s 758 mmHg 48%
16:00 +32°C° 0 mm 4 m/s 758 mmHg 54%
17:00 +30°C° 0 mm 3 m/s 757 mmHg 60%
18:00 +29°C° 0 mm 3 m/s 757 mmHg 66%
19:00 +27°C° 0 mm 3 m/s 757 mmHg 70%
20:00 +26°C° 0 mm 2 m/s 758 mmHg 74%
21:00 +24°C° 0 mm 2 m/s 758 mmHg 78%
22:00 +24°C° 0 mm 2 m/s 758 mmHg 79%
23:00 +23°C° 0 mm 2 m/s 757 mmHg 80%

23 Junho, Quarta-feira

Tempo Temperatura Precipitação Vento Pressão Humidade
00:00 +23°C° 0 mm 2 m/s 757 mmHg 81%
01:00 +23°C° 0 mm 2 m/s 757 mmHg 84%
02:00 +21°C° 0 mm 2 m/s 757 mmHg 86%
03:00 +21°C° 0 mm 2 m/s 757 mmHg 89%
04:00 +23°C° 0 mm 2 m/s 758 mmHg 84%
05:00 +24°C° 0 mm 2 m/s 758 mmHg 79%
06:00 +24°C° 0 mm 2 m/s 758 mmHg 75%
07:00 +25°C° 0 mm 3 m/s 758 mmHg 70%
08:00 +26°C° 0 mm 4 m/s 759 mmHg 65%
09:00 +27°C° 0 mm 4 m/s 759 mmHg 60%
10:00 +27°C° 0 mm 4 m/s 759 mmHg 57%
11:00 +27°C° 0 mm 4 m/s 759 mmHg 55%
12:00 +28°C° 0 mm 5 m/s 759 mmHg 52%
13:00 +28°C° 0 mm 4 m/s 759 mmHg 51%
14:00 +28°C° 0 mm 4 m/s 759 mmHg 49%
15:00 +28°C° 0 mm 4 m/s 759 mmHg 48%
16:00 +27°C° 0 mm 4 m/s 759 mmHg 53%
17:00 +26°C° 0 mm 4 m/s 759 mmHg 58%
18:00 +25°C° 0 mm 4 m/s 759 mmHg 62%
19:00 +22°C° 0 mm 3 m/s 759 mmHg 66%
20:00 +20°C° 0 mm 3 m/s 759 mmHg 70%
21:00 +18°C° 0 mm 3 m/s 760 mmHg 74%
22:00 +18°C° 0 mm 3 m/s 760 mmHg 74%
23:00 +17°C° 0 mm 2 m/s 760 mmHg 74%
Mostrar mais

Necessitamos do seu Consentimento

A Meteoprog e os seus Fornecedores de Serviços podem armazenar e aceder a dados pessoais como cookies, identificadores do dispositivo ou outras tecnologias semelhantes existentes no seu dispositivo e processar estes dados para personalizar conteúdos e anúncios, assim como funcionalidades nas redes sociais e análise de tráfego.

  • Armazenar e/ou aceder a informações no seu dispositivo

    Os cookies, identificadores do dispositivo ou outras informações podem ser armazenados ou acedidos no seu dispositivo, para os fins acima indicados.

  • Anúncios e conteúdos personalizados, medição de anúncios e conteúdos, dados sobre o público-alvo e desenvolvimento de produtos

    Os anúncios e os conteúdos podem ser personalizados com base num perfil. Podem ser adicionados dados adicionais para uma maior personalização dos anúncios e dos conteúdos. A eficácia dos anúncios e dos conteúdos pode ser medida. Podem ser obtidas informações sobre o público que visualizou os anúncios e os conteúdos. Estes dados podem ser usados para desenvolver ou melhorar sistemas, softwares ou a experiência do utilizador.

Ao clicar em "Eu concordo”, permitirá o uso de cookies, identificadores do dispositivo e web beacons mencionados ou outras tecnologias semelhantes. As configurações do navegador do seu dispositivo podem ser alteradas.

Para certos fins, podem ser invocados interesses legítimos ao invés de consentimento. Pode ler mais informação sobre este assunto na nossa Política de Privacidade e Cookies.